DMSP 5D-3 F17 DEB

Satellite information

Favourite Embed

Satellite Type and Status

DEBRISIN ORBIT

Key statistics

Satellite DMSP 5D-3 F17 DEB at a glance.

Uptime

6979

Days in orbit

Revolutions

≈ 14.3

Per day

Orbit

SSO

Sun Synchronous Orbit

Inclination

98.5

Latest

Satellite identification and parameters

Extended collection of information and parameters for DMSP 5D-3 F17 DEB.

Object identification

Identified? True

Debris? True

Object name: DMSP 5D-3 F17 DEB

International designator: 2006-050BS

Object number (NORAD): 29600

Object ID (CCSDS): 29600

Country: UNITED STATES OF AMERICA (US)

Current information (Y/N): Y

RCS size: SMALL

Orbital parameters

Period: 100.372 minutes

Inclination: 98.5345 deg

SMA: 7154.304 km

Apoapsis: 780.23 km

Periapsis: 772.108 km

RAAN: 13.0258 deg

Eccentricy: 0.0005676

Argument of periapsis: 327.181 deg

Mean anomaly: 95.5479 deg

Mean motion: 14.34668852 rev/day

Mean motion (dot): 0.00004984 rev/day2

B* drag term: 0.0017757 1/REarth

Two-line elements (TLE)

Creation date: Dec. 12, 2025, 7:26 a.m.

Reference frame: TEME

Reference center: EARTH

Epoch: Dec. 12, 2025, 12:45 a.m. UTC

TLE line 0: 0 DMSP 5D-3 F17 DEB

TLE line 1: 1 29600U 06050BS 25346.03180117 .00004984 00000-0 17757-2 0 9993

TLE line 2: 2 29600 98.5345 13.0258 0005676 327.1810 95.5479 14.34668852988515

Live tracking on map

Real-time ground track for satellite DMSP 5D-3 F17 DEB.

In-orbit conjunctions

A list of the most updated potential collisions computed for object DMSP 5D-3 F17 DEB.

Target Orbit TCA Probability of collision Miss distance Type
CZ-6A DEB LEO 2025-11-18 22:46:51 0.000490961 6.0 (m) DEBRIS
COSMOS 2251 DEB LEO 2025-08-16 00:15:35 0.0003217248 170.0 (m) DEBRIS
COSMOS 2251 DEB LEO 2025-07-18 03:16:43 0.0001157837 669.0 (m) DEBRIS
CZ-6A DEB LEO 2025-01-14 17:42:04 0.0002617352 47.0 (m) DEBRIS
FENGYUN 1C DEB SSO 2024-12-12 05:27:06 0.0001117194 286.0 (m) DEBRIS

Associated space launch

11th gen military meteorological satellite

DMSP 5D-3 F17 DEB was lifted into orbit during the mission ‘Delta IV M | DMSP F-17’, on board a Delta IV M space rocket.

The launch took place on Nov. 4, 2006, 1:53 p.m. from Space Launch Complex 6.

For more information about the launch, click the button.

Launch to space Delta IV M | DMSP F-17
Delta IV M | DMSP F-17

Agency: N/A

Status: Launch Successful

Launch date: Nov. 4, 2006, 1:53 p.m. UTC

Rocket: Delta IV M

Launch pad: Space Launch Complex 6

Location: Vandenberg SFB, CA, USA

...

Latest news about this satellite

There are no fresh news available about this satellite. Check back as we update our databases every day.


Newsletter sign-up

Weekly statistics, charts and insights to help you stay on top of the space industry.